Change the Weather History Date:

Monday, March 4, 2013

  Actual Average Record
Temperature  
Mean Temperature 23 °F -  
Max Temperature 27 °F 34 °F 62 °F (1934)
Min Temperature 19 °F 18 °F -11 °F (1972)
Degree Days  
Heating Degree Days 42    
Moisture  
Dew Point 17 °F    
Average Humidity 77    
Maximum Humidity 93    
Minimum Humidity 66    
Precipitation  
Precipitation 0.00 in - - ()
Sea Level Pressure  
Sea Level Pressure 29.94 in    
Wind  
Wind Speed 16 mph (NW)    
Max Wind Speed 21 mph    
Max Gust Speed 28 mph    
Visibility 9 miles    
Events Snow    
Averages and records for this station are not official NWS values.
T = Trace of Precipitation, MM = Missing Value Source: NWS Daily Summary

Daily Weather History Graph

Daily Weather History Graph

Search for Another Location

Airport or City:

Trip Planner

Search our weather history database for the weather conditions in past years. The results will help you decide how hot, cold, wet, or windy it might be!

Date:

Astronomy

Mar. 04, 2013 Rise Set
Actual Time 6:36 AM EST 5:59 PM EST
Civil Twilight 6:07 AM EST 6:27 PM EST
Nautical Twilight 5:35 AM EST 7:00 PM EST
Astronomical Twilight 5:02 AM EST 7:33 PM EST
Moon 12:48 AM EST (3/4) 10:33 AM EST (3/4)
Length of Visible Light 12h 19m
Length of Day
11h 23m
Waning Gibbous, 52% of the Moon is Illuminated
Mar 4
Waning Gibbous
Mar 4
Last Quarter
Mar 11
New
Mar 19
First Quarter
Mar 27
Full

Hourly Weather History & Observations

Time (EST) Temp. Windchill Dew Point Humidity Pressure Visibility Wind Dir Wind Speed Gust Speed Precip Events Conditions
12:22 AM 21.2 °F 8.9 °F 17.6 °F 86% 29.83 in 10.0 mi NNW 12.7 mph - 0.00 in Snow Light Snow
12:56 AM 22.1 °F 9.5 °F 17.1 °F 81% 29.88 in 10.0 mi NW 13.8 mph 21.9 mph 0.00 in Snow Light Snow
1:56 AM 21.0 °F 6.2 °F 16.2 °F 81% 29.90 in 10.0 mi NW 18.4 mph - 0.00 in Snow Light Snow
2:56 AM 21.0 °F 8.6 °F 16.2 °F 81% 29.89 in 10.0 mi NW 12.7 mph - 0.00 in Snow Light Snow
4:56 AM 21.0 °F 6.6 °F 16.2 °F 81% 29.91 in 6.0 mi WNW 17.3 mph - 0.00 in Snow Light Snow
5:47 AM 19.4 °F 4.5 °F 15.8 °F 86% 29.88 in 4.0 mi NW 17.3 mph - 0.00 in Snow Light Snow
5:56 AM 20.1 °F 6.9 °F 16.2 °F 85% 29.94 in 4.0 mi NW 13.8 mph 23.0 mph 0.00 in Snow Light Snow
6:11 AM 19.4 °F 5.0 °F 17.6 °F 93% 29.88 in 3.0 mi NW 16.1 mph - 0.00 in Snow Light Snow
7:56 AM 20.1 °F 5.9 °F 16.2 °F 85% 29.95 in 3.0 mi NW 16.1 mph - 0.00 in Snow Light Snow
8:56 AM 20.1 °F 5.0 °F 16.2 °F 85% 29.95 in 4.0 mi NW 18.4 mph 23.0 mph 0.00 in Snow Light Snow
9:56 AM 21.0 °F 6.6 °F 15.1 °F 78% 29.95 in 10.0 mi NW 17.3 mph - 0.00 in Snow Light Snow
10:56 AM 23.0 °F 8.3 °F 15.1 °F 72% 29.95 in 10.0 mi WNW 19.6 mph 25.3 mph 0.00 in   Overcast
11:56 AM 25.2 °F 11.2 °F 16.2 °F 69% 29.95 in 10.0 mi NW 19.6 mph 24.2 mph 0.00 in   Overcast
12:56 PM 25.2 °F 12.9 °F 16.2 °F 69% 29.94 in 10.0 mi NNW 15.0 mph - N/A   Overcast
1:56 PM 26.1 °F 12.7 °F 16.2 °F 66% 29.94 in 10.0 mi NW 18.4 mph - N/A   Overcast
2:56 PM 27.1 °F 15.4 °F 17.1 °F 66% 29.94 in 10.0 mi NW 15.0 mph - N/A   Overcast
3:56 PM 27.1 °F 15.9 °F 17.1 °F 66% 29.95 in 10.0 mi NNW 13.8 mph - N/A   Overcast
4:56 PM 27.1 °F 13.4 °F 18.1 °F 69% 29.96 in 10.0 mi NW 20.7 mph 27.6 mph N/A   Overcast
5:36 PM 26.6 °F 13.1 °F 17.6 °F 69% 29.92 in 10.0 mi WNW 19.6 mph - N/A   Overcast
5:56 PM 26.1 °F 12.7 °F 19.0 °F 75% 29.98 in 10.0 mi WNW 18.4 mph 25.3 mph N/A   Overcast
6:56 PM 26.1 °F 13.6 °F 19.0 °F 75% 29.99 in 10.0 mi NW 16.1 mph - N/A   Overcast
7:56 PM 26.1 °F 14.5 °F 19.0 °F 75% 30.00 in 10.0 mi NW 13.8 mph - N/A   Overcast
8:56 PM 27.1 °F 14.5 °F 20.1 °F 75% 30.01 in 10.0 mi NW 17.3 mph - N/A   Overcast
9:56 PM 27.1 °F 13.4 °F 20.1 °F 75% 30.02 in 10.0 mi NW 20.7 mph - N/A   Overcast
10:56 PM 26.1 °F 14.5 °F 20.1 °F 78% 30.02 in 10.0 mi NW 13.8 mph - 0.00 in Snow Light Snow
11:56 PM 26.1 °F 17.6 °F 21.0 °F 81% 30.02 in 10.0 mi NNW 8.1 mph - 0.00 in Snow Light Snow